| time (UTC) | temp F | wind direction | speed MPH | gust MPH | rain 1hr in | rain 24hr in | rain mn in | humidity % | barometer mb |
| 20260505051525 | 64 | 110 | 0.0 | 1.0 | 0.00 | 0.00 | 0.00 | 47 | 1008.3 |
| 20260505041523 | 66 | 96 | 0.0 | 1.0 | 0.00 | 0.00 | 0.00 | 44 | 1007.9 |
| 20260505040023 | 67 | 126 | 0.0 | 1.0 | 0.00 | 0.00 | 0.00 | 43 | 1007.7 |
| 20260505034527 | 68 | 122 | 0.0 | 1.0 | 0.00 | 0.00 | 0.00 | 41 | 1007.4 |
| 20260505031523 | 69 | 108 | 0.0 | 1.0 | 0.00 | 0.00 | 0.00 | 39 | 1006.8 |
| 20260505030038 | 70 | 103 | 0.0 | 3.0 | 0.00 | 0.00 | 0.00 | 38 | 1006.6 |
| 20260505024523 | 71 | 181 | 1.0 | 5.0 | 0.00 | 0.00 | 0.00 | 38 | 1006.4 |
| 20260505021523 | 73 | 101 | 0.0 | 2.0 | 0.00 | 0.00 | 0.00 | 37 | 1006.3 |
| 20260505020020 | 74 | 94 | 0.0 | 8.0 | 0.00 | 0.00 | 0.00 | 36 | 1006.3 |
| 20260505014523 | 74 | 96 | 1.0 | 6.0 | 0.00 | 0.00 | 0.00 | 35 | 1006.2 |
| 20260505011513 | 75 | 73 | 1.0 | 5.0 | 0.00 | 0.00 | 0.00 | 34 | 1006.2 |
| 20260505010012 | 76 | 110 | 0.0 | 6.0 | 0.00 | 0.00 | 0.00 | 34 | 1006.2 |
| 20260505004527 | 76 | 110 | 1.0 | 5.0 | 0.00 | 0.00 | 0.00 | 34 | 1006.2 |
| 20260505001511 | 77 | 104 | 1.0 | 7.0 | 0.00 | 0.00 | 0.00 | 32 | 1005.9 |
| 20260505000015 | 77 | 90 | 1.0 | 6.0 | 0.00 | 0.00 | 0.00 | 32 | 1006.0 |
| 20260504234508 | 78 | 115 | 0.0 | 7.0 | 0.00 | 0.00 | 0.00 | 31 | 1006.0 |
| 20260504231505 | 79 | 112 | 3.0 | 9.0 | 0.00 | 0.00 | 0.00 | 28 | 1006.0 |
| 20260504230003 | 79 | 96 | 1.0 | 4.0 | 0.00 | 0.00 | 0.00 | 26 | 1006.0 |
| 20260504224503 | 80 | 126 | 0.0 | 7.0 | 0.00 | 0.00 | 0.00 | 26 | 1006.1 |
| 20260504221501 | 81 | 129 | 1.0 | 8.0 | 0.00 | 0.00 | 0.00 | 27 | 1006.2 |
| 20260504220059 | 80 | 108 | 2.0 | 7.0 | 0.00 | 0.00 | 0.00 | 27 | 1006.3 |
| 20260504214603 | 81 | 110 | 2.0 | 6.0 | 0.00 | 0.00 | 0.00 | 27 | 1006.4 |
| 20260504211600 | 81 | 123 | 0.0 | 11.0 | 0.00 | 0.00 | 0.00 | 28 | 1006.6 |
| 20260504210059 | 80 | 128 | 2.0 | 11.0 | 0.00 | 0.00 | 0.00 | 28 | 1006.7 |
| 20260504204558 | 80 | 173 | 1.0 | 6.0 | 0.00 | 0.00 | 0.00 | 28 | 1006.8 |
| 20260504201554 | 80 | 117 | 1.0 | 3.0 | 0.00 | 0.00 | 0.00 | 27 | 1007.0 |
| 20260504200051 | 79 | 101 | 0.0 | 10.0 | 0.00 | 0.00 | 0.00 | 29 | 1007.0 |
| 20260504194556 | 79 | 115 | 1.0 | 4.0 | 0.00 | 0.00 | 0.00 | 29 | 1007.1 |
| 20260504191610 | 78 | 117 | 0.0 | 5.0 | 0.00 | 0.00 | 0.00 | 29 | 1007.4 |
| 20260504190049 | 79 | 91 | 0.0 | 5.0 | 0.00 | 0.00 | 0.00 | 30 | 1007.4 |
| 20260504184555 | 78 | 120 | 1.0 | 5.0 | 0.00 | 0.00 | 0.00 | 30 | 1007.6 |
| 20260504181534 | 75 | 122 | 0.0 | 10.0 | 0.00 | 0.00 | 0.00 | 34 | 1007.8 |
| 20260504180034 | 74 | 115 | 0.0 | 2.0 | 0.00 | 0.00 | 0.00 | 33 | 1007.9 |
| 20260504174528 | 74 | 127 | 0.0 | 3.0 | 0.00 | 0.00 | 0.00 | 35 | 1007.9 |
| 20260504171529 | 67 | 119 | 0.0 | 2.0 | 0.00 | 0.00 | 0.00 | 51 | 1008.1 |
| 20260504081600 | 49 | 116 | 0.0 | 0.0 | 0.00 | 0.00 | 0.00 | 71 | 1009.1 |